Weather History for Montrose, CO

Change the Weather History Date:

Wednesday, July 24, 2013

  Actual Average Record
Temperature  
Mean Temperature 75 °F 74 °F  
Max Temperature 84 °F 90 °F 96 °F (2006)
Min Temperature 66 °F 58 °F 50 °F (2004)
Degree Days  
Heating Degree Days 0 0  
Month to date heating degree days 0 0  
Since 1 June heating degree days 9 39  
Since 1 July heating degree days 0 0  
Cooling Degree Days 10 9  
Month to date cooling degree days 292 208  
Year to date cooling degree days 556 360  
Since 1 June cooling degree days 531 343  
Growing Degree Days 25 (Base 50)    
Moisture  
Dew Point 47 °F    
Average Humidity 42    
Maximum Humidity 57    
Minimum Humidity 26    
Precipitation  
Precipitation T in 0.04 in 0.35 in (1999)
Month to date precipitation 1.24 0.67  
Year to date precipitation 3.89 5.74  
Sea Level Pressure  
Sea Level Pressure 29.94 in    
Wind  
Wind Speed 8 mph (SE)    
Max Wind Speed 26 mph    
Max Gust Speed 32 mph    
Visibility 10 miles    
Events Rain    
T = Trace of Precipitation, MM = Missing Value Source: NWS Daily Summary

Daily Weather History Graph

Daily Weather History Graph

Search for Another Location

Airport:

Trip Planner

Search our weather history database for the weather conditions in past years. The results will help you decide how hot, cold, wet, or windy it might be!

Date:

Astronomy

Jul. 24, 2013 Rise Set
Actual Time 6:06 AM MDT 8:28 PM MDT
Civil Twilight 5:36 AM MDT 8:58 PM MDT
Nautical Twilight 4:59 AM MDT 9:35 PM MDT
Astronomical Twilight 4:18 AM MDT 10:16 PM MDT
Moon 9:39 PM MDT (7/24) 8:28 AM MDT (7/24)
Length of Visible Light 15h 22m
Length of Day
14h 21m
Waning Gibbous, 94% of the Moon is Illuminated
Jul 24
Waning Gibbous
Jul 29
Last Quarter
Aug 6
New
Aug 14
First Quarter
Aug 20
Full

Hourly Weather History & Observations

Time (MDT) Temp. Dew Point Humidity Pressure Visibility Wind Dir Wind Speed Gust Speed Precip Events Conditions
12:53 AM 75.9 °F 41.0 °F 29% 29.88 in 10.0 mi East 6.9 mph - N/A   Clear
1:53 AM 75.9 °F 39.9 °F 27% 29.87 in 10.0 mi East 6.9 mph - N/A   Clear
2:53 AM 75.0 °F 39.9 °F 28% 29.87 in 10.0 mi South 3.5 mph - N/A   Clear
3:53 AM 70.0 °F 44.1 °F 39% 29.88 in 10.0 mi SSW 5.8 mph - N/A   Clear
4:53 AM 68.0 °F 43.0 °F 40% 29.89 in 10.0 mi SE 8.1 mph - N/A   Clear
5:53 AM 69.1 °F 43.0 °F 39% 29.91 in 10.0 mi SSE 8.1 mph - N/A   Clear
6:53 AM 71.1 °F 43.0 °F 36% 29.94 in 10.0 mi East 8.1 mph - N/A   Clear
7:53 AM 72.0 °F 44.1 °F 37% 29.96 in 10.0 mi ESE 8.1 mph - N/A   Partly Cloudy
8:53 AM 71.1 °F 51.1 °F 49% 30.01 in 10.0 mi ESE 17.3 mph - 0.00 in Rain Light Rain
9:53 AM 73.9 °F 48.0 °F 40% 29.99 in 10.0 mi SE 15.0 mph - 0.00 in   Overcast
10:53 AM 71.1 °F 52.0 °F 51% 30.03 in 10.0 mi SE 19.6 mph 27.6 mph 0.00 in Rain Light Rain
11:53 AM 69.1 °F 53.1 °F 57% 30.05 in 10.0 mi SSE 16.1 mph 25.3 mph 0.00 in Rain Light Rain
12:53 PM 73.0 °F 48.0 °F 41% 30.05 in 10.0 mi SE 9.2 mph 16.1 mph 0.00 in   Overcast
1:53 PM 71.1 °F 52.0 °F 51% 30.02 in 10.0 mi ENE 3.5 mph - 0.00 in   Overcast
2:53 PM 73.0 °F 52.0 °F 48% 30.00 in 10.0 mi ESE 8.1 mph - N/A   Clear
3:53 PM 81.0 °F 46.0 °F 29% 29.95 in 10.0 mi ENE 5.8 mph - N/A   Clear
4:53 PM 82.0 °F 46.0 °F 28% 29.93 in 10.0 mi Variable 3.5 mph - N/A   Clear
5:53 PM 82.9 °F 44.1 °F 25% 29.90 in 10.0 mi South 3.5 mph - N/A   Clear
6:53 PM 81.0 °F 48.0 °F 31% 29.89 in 10.0 mi East 4.6 mph - N/A   Clear
7:53 PM 81.0 °F 46.9 °F 30% 29.88 in 10.0 mi Calm Calm - N/A   Clear
8:53 PM 77.0 °F 48.0 °F 36% 29.91 in 10.0 mi East 5.8 mph - N/A   Clear
9:53 PM 73.9 °F 50.0 °F 43% 29.92 in 10.0 mi Calm Calm - N/A   Clear
10:53 PM 71.1 °F 50.0 °F 47% 29.94 in 10.0 mi SSE 8.1 mph - N/A   Clear
11:53 PM 70.0 °F 50.0 °F 49% 29.95 in 10.0 mi SE 8.1 mph - N/A   Mostly Cloudy